Weather Roundup
Issued by NWS Springfield, MO

Home | Current Version | Previous Version | Text Only | Print | Product List | Glossary On
Versions: 1 2 3 4 5 6 7 8 9 10 11 12 13 14 15 16 17 18 19 20 21 22 23 24 25 26 27 28 29 30 31 32 33 34 35 36 37 38 39 40 41 42 43 44 45 46 47 48 49 50
000
NZUS99 KSGF 220059
HRRSGF

HOURLY WEATHER
NATIONAL WEATHER SERVICE SPRINGFIELD MO
800 PM CDT TUE OCT 21 2014

......SGF CWA......

CITY           SKY/WX    TMP DP  RH WIND       PRES   REMARKS
SPRINGFIELD    CLEAR     56  47  71 CALM      30.09R
JOPLIN         CLEAR     58  51  78 CALM      30.08R
WEST PLAINS    CLEAR     55  46  71 CALM      30.12R
ROLLA          CLEAR     57  45  64 E6        30.11R
OSAGE BEACH    CLEAR     57  45  62 CALM      30.11R
BRANSON        CLEAR     55  48  76 CALM      30.10R

......SURROUNDING SGF CWA......

CITY           SKY/WX    TMP DP  RH WIND       PRES   REMARKS
CHANUTE        CLEAR     65  55  70 SE5       30.06R
PARSONS        CLEAR     62  58  86 CALM      30.07R
COFFEYVILLE    CLEAR     67  57  70 E5        30.05R
EMPORIA        CLEAR     64  55  72 SE8       30.05R
SILOAM SPRINGS CLEAR     64  52  63 CALM      30.09R
HARRISON AR    CLEAR     59  48  67 CALM      30.10R
NEAR YELLVILLE CLEAR     57  46  67 CALM      30.10R

......KANSAS AND MISSOURI......

CITY           SKY/WX    TMP DP  RH WIND       PRES   REMARKS
KANSAS CTY INT CLEAR     63  44  50 E9        30.08S
DOWNTOWN KC    CLEAR     64  45  49 E6        30.07S
COLUMBIA       CLEAR     56  45  66 E7        30.13R
SEDALIA        CLEAR     60  45  57 E5        30.12R
ST JOSEPH      CLEAR     61  43  51 SE8       30.08R
ST LOUIS       CLEAR     59  42  53 NE8       30.16R
SPIRIT OF STL  CLEAR     50  45  83 CALM      30.15R
KIRKSVILLE     CLEAR     53  44  71 NE6       30.16R
WICHITA        CLEAR     70  59  68 SE8       30.01R
TOPEKA         CLEAR     62  45  53 E5        30.06R
OLATHE         CLEAR     62  44  51 E7        30.08R

......TENNESSEE......

CITY           SKY/WX    TMP DP  RH WIND       PRES   REMARKS
MEMPHIS        CLEAR     63  47  55 CALM      30.08R
NASHVILLE      CLEAR     59  45  59 N13       30.08R

......ARKANSAS.......

CITY           SKY/WX    TMP DP  RH WIND       PRES   REMARKS
FAYETTEVILLE   CLEAR     56  54  93 CALM      30.09R
FT SMITH       CLEAR     67  60  78 CALM      30.05R
LITTLE ROCK    CLEAR     63  52  67 CALM      30.07R

......OKLAHOMA.......

CITY           SKY/WX    TMP DP  RH WIND       PRES   REMARKS
TULSA          CLEAR     71  62  73 SE5       30.02R
PONCA CITY     CLEAR     70  60  70 SE8       30.02R
MCALESTER      PTCLDY    68  62  81 CALM      30.06R
OKLAHOMA CITY  CLEAR     68  58  70 SE8       30.04R

......IOWA............

CITY           SKY/WX    TMP DP  RH WIND       PRES   REMARKS
DES MOINES     FAIR      59  42  53 E10       30.13S
QUAD CITIES    CLEAR     42  36  79 E6        30.21R

......ILLINOIS........

CITY           SKY/WX    TMP DP  RH WIND       PRES   REMARKS
QUINCY         CLEAR     53  39  59 E6        30.17R
CHICAGO        MOCLDY    47  37  68 N8        30.24R




USA.gov is the U.S. government's official web portal to all federal, state and local government web resources and services.